Powrót do katalogu

CRRES DEB

CANISTER

AktywnyHEO
NORAD 21778·DEBRIS·🇺🇸 United States

Wystrzelony Jul 25, 1990 z Cape Canaveral Space Force Station

Loading…

Następne Przeloty (najbliższe 24 godziny)

TLE

Starzejące sięSource: Space-Track

Epoka: Aug 24, 2026, 20:41 UTC

1 21778U 90065R   26236.86180613 -.00000214  00000-0  43380-3 0  9996
2 21778  17.7446 150.6473 7004071 200.3835 104.6979  2.57329222132839

Śledź CRRES DEB w czasie rzeczywistym z AllMySat

Download on the App Store